Weather Service Report


769 
ASCA42 TJSJ 030010
RWRPR 
PUERTO RICO/U.S. VIRGIN ISLANDS HOURLY WEATHER ROUNDUP
NATIONAL WEATHER SERVICE SAN JUAN PR
800 PM AST THU JUL 02 2015

PRZ001-004-030100-
PUERTO RICO
  
CITY           SKY/WX    TMP DP  RH WIND       PRES   REMARKS
SAN JUAN LMM   PTCLDY    82  73  74 E13       30.07R                  
AGUADILLA      MOCLDY    81  72  74 E9G18     30.06R                  
CEIBA          CLOUDY    82  73  74 E13       30.08S                  
$$

PRZ006-007-030100-
U.S. VIRGIN ISLANDS
  
CITY           SKY/WX    TMP DP  RH WIND       PRES   REMARKS
CHARLOTTE AMA  CLOUDY    82  72  69 E15       30.05S                  
CHRISTIANSTED  PTCLDY    81  72  74 E12       30.05S                  
$$

HOURLY WEATHER ROUNDUP FOR THE NEWS MEDIA
  
CITY           SKY/WX    TMP DP  RH WIND       PRES   REMARKS
ORLANDO        CLOUDY    76  72  87 SE9       30.11R                  
NEW YORK       CLOUDY    71  62  73 SW5       29.87F                  
NEWARK         CLOUDY    74  59  59 S3        29.86S                  
CHICAGO        PTSUNNY   63  52  67 NE8       29.97F                  
HARTFORD       CLOUDY    71  61  70 S3        29.86S                  
BOSTON         CLOUDY    75  55  49 W9        29.86S                  
DALLAS         CLOUDY    90  66  45 S13G23    29.89F HX  92           
PHILADELPHIA   LGT RAIN  73  66  78 SE3       29.87F                  
LOS ANGELES    MOSUNNY   71  63  75 SW16      29.94F                  
WASHINGTON DC  CLOUDY    73  63  70 CALM      29.89S                  

Return to Home page


Western Regional Climate Center, wrcc@dri.edu